Regional Weather Roundup
Issued by NWS New Orleans/Baton Rouge, LA

Home | Current Version | Previous Version | Graphics & Text | Print | Product List | Glossary On
Versions: 1 2 3 4 5 6 7 8 9 10 11 12 13 14 15 16 17 18 19 20 21 22 23 24 25 26 27 28 29 30 31 32 33 34 35 36 37 38 39 40 41 42 43 44 45 46 47 48 49 50
019
ASUS44 KLIX 171601
RWRLIX
NEW ORLEANS REGIONAL WEATHER ROUNDUP
NATIONAL WEATHER SERVICE NEW ORLEANS LA
1000 AM CST WED DEC 17 2014

NOTE: "FAIR" INDICATES FEW OR NO CLOUDS BELOW 12,000 FEET WITH NO
      SIGNIFICANT WEATHER AND/OR OBSTRUCTIONS TO VISIBILITY.
      SKY/WX - SKY CONDITION AND SIGNIFICANT WEATHER.
      TMP - AIR TEMPERATURE.     DP    - DEWPOINT TEMPERATURE.
      RH  - RELATIVE HUMIDITY.   PRES  - PRESSURE.
      HI  - HEAT INDEX.          WCI   - WIND CHILL INDEX.

*  THESE STATIONS ARE NOT NWS OR FAA STATIONS AND ARE NOT UNDER
   NWS QUALITY CONTROL.

LAZ038-040-048-061>063-065>067-069-171700-
SOUTHEAST LOUISIANA

CITY           SKY/WX    TMP DP  RH WIND       PRES   REMARKS
N.O. AUDUBON     N/A     56  44  65 MISG        N/A
N.O. INTL ARPT PTSUNNY   53  41  63 NE9       30.30S
N.O. LAKEFRONT MOSUNNY   54  41  61 E10       30.30S
N.O. DOWNTOWN*   N/A     52  39  62 NE6       30.30F
SLIDELL        SUNNY     52  38  58 NE5       30.31R
BATON ROUGE    PTSUNNY   49  39  68 NE8       30.30F
BOOTHVILLE     MOSUNNY   59  47  64 NE6       30.29S
BELLE CHASSE   PTSUNNY   56  43  61 NE9       30.29R
BOGALUSA*        N/A     51  39  65 E6        30.33F
GALLIANO*      NOT AVBL
NEW ROADS*     NOT AVBL
GONZALES*      NOT AVBL
HAMMOND*       NOT AVBL
HOUMA*         PTSUNNY   54  45  71 NE9       30.28S
PORT FOURCHON* SUNNY     57  48  72 NE10      30.31S

$$

MSZ070-080>082-171700-
SOUTHERN MISSISSIPPI

CITY           SKY/WX    TMP DP  RH WIND       PRES   REMARKS
MCCOMB         SUNNY     48  38  68 E9        30.31S
GULFPORT       MOSUNNY   53  39  59 VRB7      30.30S
BILOXI         MOSUNNY   52  39  60 N6        30.30S
PASCAGOULA     SUNNY     53  38  56 N6        30.30R
STENNIS ARPT*  SUNNY     52  36  54 VRB5      30.32R

$$

COASTAL OBSERVATIONS
LAKE AND NEARSHORE STATIONS

STATION/POSITION TIME  TEMP    WIND        PRES    WAVE
                       AIR SEA DIR/SP/G            HT/PER
                 (UTC) (F)     (DEG/KT/KT) (MB)    (FT/S)
PASCAGOULA       1500   52      30/  5/  7 1025.5
WAVELAND YACHT   1500   50      60/  7/  8 1025.4
GRAND ISLE       1500   56 62   80/  7/ 11 1025.8
SOUTHWEST PASS   1500   57                 1025.5
NEW CANAL        1500   50 57   70/ 10/ 13 1026.3
SHELL BEACH      1500   53      50/  8/ 10 1025.4

OFFSHORE STATIONS

STATION/POSITION TIME  TEMP    WIND        PRES    WAVE
                       AIR SEA DIR/SP/G            HT/PER
                 (UTC) (F)     (DEG/KT/KT) (MB)    (FT/S)
64 S DAUPHIN ISL 1600   60 74   70/  6/  8 1024.5    2/ 5

$$




USA.gov is the U.S. government's official web portal to all federal, state and local government web resources and services.